CST,Max TemperatureF,Mean TemperatureF,Min TemperatureF,Max Dew PointF,MeanDew PointF,Min DewpointF,Max Humidity, Mean Humidity, Min Humidity, Max Sea Level PressureIn, Mean Sea Level PressureIn, Min Sea Level PressureIn, Max VisibilityMiles, Mean VisibilityMiles, Min VisibilityMiles, Max Wind SpeedMPH, Mean Wind SpeedMPH, Max Gust SpeedMPH,PrecipitationIn, CloudCover, Events, WindDirDegrees
2013-12-1,57,44,32,36,32,28,87,70,41,30.11,30.03,29.88,10,10,7,10,5,,0.00,0,,249
2013-12-2,62,46,30,37,31,27,100,71,32,29.88,29.75,29.64,10,9,7,12,7,,0.00,0,,244
2013-12-3,,,,,,,,,,,,,,,,,,,,,,
2013-12-4,,,,,,,,,,,,,,,,,,,,,,
2013-12-5,,,,,,,,,,,,,,,,,,,,,,
2013-12-6,10,10,10,-2,-2,-2,57,57,57,30.60,30.60,30.59,10,10,10,13,11,,0.00,0,,14
2013-12-7,21,13,5,7,0,-2,72,54,39,30.63,30.48,30.23,10,10,9,13,8,20,0.00,4,,76
2013-12-8,28,22,17,19,15,7,93,73,58,30.22,30.06,29.92,10,9,4,15,11,17,0.00,7,,192
2013-12-9,19,14,6,12,6,0,86,66,42,30.38,30.32,30.20,10,9,2,14,9,20,0.05,5,Rain-Snow,343
2013-12-10,48,27,6,18,9,0,80,55,17,30.37,30.25,30.11,10,10,7,24,11,31,0.00,1,,218
2013-12-11,37,26,15,19,12,5,86,59,33,30.61,30.49,30.22,10,10,7,20,8,23,0.00,0,,35
2013-12-12,48,31,14,25,15,5,86,60,32,30.57,30.36,30.08,10,10,8,22,10,26,0.00,0,,196
2013-12-13,55,44,32,36,31,25,87,63,47,30.07,29.84,29.70,10,10,7,23,14,30,0.00,4,,214
2013-12-14,46,35,24,27,21,18,86,65,39,30.26,30.18,29.93,10,8,5,25,15,36,0.00,3,,329
2013-12-15,59,41,23,25,21,18,86,51,25,30.25,30.16,30.08,10,10,8,14,9,16,0.00,1,,260
2013-12-16,68,50,32,25,20,18,55,39,18,30.16,30.10,30.06,10,10,6,14,9,22,0.00,1,,270
2013-12-17,59,46,32,27,22,18,69,46,25,30.37,30.27,30.16,10,10,7,15,7,18,0.00,0,,349
2013-12-18,68,49,30,39,29,21,75,51,23,30.24,29.96,29.73,10,10,7,29,13,37,0.00,0,,200
2013-12-19,62,53,39,45,41,32,87,68,42,29.73,29.64,29.56,10,10,10,26,16,34,0.00,0,,193
2013-12-20,33,26,19,27,15,10,80,63,55,30.02,29.91,29.72,10,10,7,32,17,39,0.00,6,Rain,5
2013-12-21,28,26,24,27,20,14,100,79,59,29.85,29.73,29.56,10,6,0,18,9,22,0.47,5,Rain-Snow,15
2013-12-22,32,24,15,21,17,14,93,81,55,30.34,30.15,29.85,10,9,5,15,10,,0.00,0,,327
2013-12-23,19,16,14,18,15,12,93,90,80,30.57,30.49,30.33,10,6,0,17,7,21,0.00,8,Fog-Rain-Snow,94
2013-12-24,32,26,19,32,25,18,100,94,86,30.52,30.28,30.11,6,4,0,23,12,28,0.00,8,Fog,184
2013-12-25,46,35,24,32,28,23,100,79,50,30.43,30.37,30.27,10,9,2,14,7,,0.00,3,,317
2013-12-26,55,40,24,36,28,23,93,74,41,30.40,30.30,30.20,10,10,10,21,9,24,0.00,1,,247
2013-12-27,57,40,24,32,28,23,100,72,27,30.37,30.30,30.22,10,10,10,15,7,,0.00,0,,232
2013-12-28,59,44,28,37,29,25,100,66,29,30.21,30.00,29.85,10,10,8,21,11,28,0.00,1,,198
2013-12-29,39,26,14,37,11,3,93,59,43,30.36,30.26,29.95,10,10,10,36,18,45,0.00,7,,2
2013-12-30,44,27,10,21,13,5,85,64,34,30.34,30.26,30.19,10,10,9,13,5,18,0.00,2,,198
2013-12-31,57,40,24,25,22,19,80,55,23,30.32,30.17,30.02,10,10,10,30,14,37,0.00,2,,207